Torna al catalogo

CZ-6A DEB

AttivoPO
NORAD 58433·DEBRIS·🇨🇳 China

Lanciato Nov 11, 2022 da Taiyuan Satellite Launch Center

Loading…

Prossimi Passaggi (prossime 24 ore)

TLE

In scadenzaSource: Space-Track

Epoca: Sep 7, 2026, 16:42 UTC

1 58433U 22151AJB 26250.69589771  .00067692  00000-0  21195-2 0  9991
2 58433  98.7752  55.4346 0043770 156.3303 203.9961 15.31903045180901

Traccia CZ-6A DEB in tempo reale con AllMySat

Download on the App Store